Hourly Weather Roundup
Issued by NWS Central Illinois

Home | Current Version | Previous Version | Text Only | Print | Product List | Glossary On
Versions: 1 2 3 4 5 6 7 8 9 10 11 12 13 14 15 16 17 18 19 20 21 22 23 24 25 26 27 28 29 30 31 32 33 34 35 36 37 38 39 40 41 42 43 44 45 46 47 48 49 50
000
NZUS43 KILX 221110
HWRILX

Area Weather Roundup
National Weather Service Lincoln IL
600 AM CDT SUN OCT 22 2017

NOTE:  "FAIR" indicates few or no clouds below 12,000 feet, with
       no sigificant weather and/or obstructions to visibility.


CITY           SKY/WX    TMP DP  RH WIND       PRES   REMARKS
Bloomington    CLOUDY    64  59  83 S17       29.94R
Champaign      CLOUDY    66  57  72 SE20G25   29.97F
Danville       MOCLDY    64  55  73 S14G20    29.99S
Decatur        CLOUDY    67  59  75 S13       29.95R
Effingham      CLOUDY    66  60  80 SE13G20   30.00S
Flora          MOCLDY    66  60  79 S13       30.00R
Jacksonville   CLOUDY    67  61  81 SE13G24   29.87R
Lacon          CLOUDY    67  60  78 S12       29.88R THUNDER
Lawrenceville  PTCLDY    65  55  70 S16G23    30.05R
Litchfield     CLOUDY    67  60  78 SE15      29.91S
$$


CITY           SKY/WX    TMP DP  RH WIND       PRES   REMARKS
Lincoln        MOCLDY    68  61  79 S14G23    29.90S
Macomb         LGT RAIN  58  58  97 NW16      29.92R
Mattoon        CLOUDY    64  59  83 S16G24    29.97F
Mt Carmel AP   CLOUDY    64  55  72 S14       30.04S
Olney-Noble AP CLOUDY    64  61  88 SE14      30.02S
Paris AP       PTCLDY    62  56  81 SE15      30.03R
Peoria         LGT RAIN  66  63  90 S12       29.87S FOG
Pontiac        CLOUDY    66  61  85 S17G25    29.93S
Rantoul        MOCLDY    64  58  80 SE13G20   29.98S
Robinson       CLOUDY    64  56  76 S14G21    30.03S
Springfield    CLOUDY    69  62  78 S16G29    29.89S
Taylorville    CLOUDY    67  60  78 S14G22    29.93R
$$

...REGIONAL REPORTS...


CITY           SKY/WX    TMP DP  RH WIND       PRES   REMARKS
Chicago O`Hare MOCLDY    66  57  72 S14       29.92F
Kankakee       PTCLDY    63  55  77 SE9       29.96F
Moline         LGT RAIN  57  54  89 NW12      29.90R
Mount Sterling LGT RAIN  58  56  94 NW17G30   29.91R
Mount Vernon   CLOUDY    69  61  75 S10G17    29.99R
Pittsfield     RAIN      67  64  90 NW10      29.89R
Quincy         TSTM      55  54  96 NW16      29.92R FOG
Rockford       CLOUDY    63  59  87 SE7       29.90S
$$


CITY           SKY/WX    TMP DP  RH WIND       PRES   REMARKS
Burlington     HVY RAIN  55  54  96 NW9G21    29.93R FOG
Cedar Rapids   LGT RAIN  51  49  92 NW12      29.95R
Des Moines     CLOUDY    51  46  83 W7        30.00R
Kirksville     LGT RAIN  50  50 100 N14       29.96F
Ottumwa        RAIN      50  49  96 N9        29.98R
St Louis       LGT RAIN  70  64  81 SE15      29.88R
$$


CITY           SKY/WX    TMP DP  RH WIND       PRES   REMARKS
Terre Haute    CLOUDY    64  54  69 S16G23    30.05R
Evansville     PTCLDY    62  53  72 SE6       30.07S
Indianapolis   PTCLDY    56  50  80 SE9       30.09S
Lafayette      CLEAR     61  52  72 S7        30.04R
Madison        CLOUDY    66  57  72 S8        29.86R
Milwaukee      MOCLDY    60  56  86 SE7       29.92R
$$





USA.gov is the U.S. government's official web portal to all federal, state and local government web resources and services.